Djibouti-1B

operational
NORAD ID: 62402 Int'l Des: 2024-247 Owner: CERD/MONTP Country: DJ
LEOCIRCULAR

Djibouti-1Bについて

説明を読み込み中...

リアルタイム位置

3D地球を読み込み中...

次回通過

高度履歴

Altitude vs Time

uPlot chart will show altitude changes over time

軌道要素

1 62402U 24247AB 26063.19240558 .00056251 00000-0 11348-2 0 9992
2 62402 44.9733 117.8260 0008165 339.8912 20.1655 15.45754991 67233
Epoch: Mar 4, 2026 • Age: 20 hours

現在のステータス

高度 442.4 km
速度 7.65 km/s
衛星直下点 -42.88°S, 95.76°W
打ち上げ日 Dec 21, 2024
運用期間 1.1 years
タイプ other

技術仕様

分類 Payload
質量 1.00 kg
乾燥質量 1.00 kg
総質量 1.00 kg
長さ 0.10 m
直径 0.10 m
スパン 0.10 m
形状 Box
製造者 MONTP
バスタイプ Cubesat 1U
フェーズステータス In Orbit
所有者/国 CERD/MONTP/DJ

大規模コンステレーション

Loading constellations...